{"data":{"norad_id":65483,"intl_designator":"2025-195AB","name":"STARLINK-35037","alt_names":[],"object_type":"PAYLOAD","status":"ACTIVE","operator":null,"country":"US","launch_date":"2025-09-03","launch_site_code":"AFETR","launch_vehicle":null,"mission":null,"orbit_class":"UNKNOWN","rcs_meters":null,"size_class":null,"mass_kg":null,"dimensions":null,"purposes":["comms"],"wikipedia_slug":null,"has_3d_model":false,"image_url":null,"decayed_at":null,"tle_current":{"epoch":"2026-05-24T20:08:41.167104Z","epoch_age_seconds":92207,"freshness":"FRESH","line1":"1 65483U 25195AB  26144.83936536  .00028912  00000+0  98409-3 0  9992","line2":"2 65483  53.1562 264.3713 0000604 107.5384 252.5683 15.30213501 41630","mean_motion":15.30213501,"eccentricity":6.04e-5,"inclination_deg":53.1562,"raan_deg":264.3713,"arg_perigee_deg":107.5384,"mean_anomaly_deg":252.5683,"bstar":0.00098409,"rev_number":4163,"period_min":94.104515419512,"perigee_km":474.76081813309,"apogee_km":475.58869819348,"semimajor_km":6853.3117581633,"source":"CELESTRAK","updated_at":"2026-05-25T13:38:20.838069Z"}}}